Location: Darlington Observatory
(36.4817°N, 105.8156°W)
Time: 00:54:50
(UTC-07:00)

NOSS 3-3 (A) - Visible Passes

Search period start: 18 January 2017 00:00
Search period end: 28 January 2017 00:00
Orbit: 920 x 1293 km, 63.4° (Epoch: 05 January)

Date Brightness Start Highest point End Pass type
(mag) Time Alt. Az. Time Alt. Az. Time Alt. Az.
18 Jan 5.6 06:42:32 10° S 06:48:10 40° ESE 06:54:08 10° NE visible
18 Jan 7.0 17:59:07 10° WNW 18:05:06 25° WSW 18:11:18 10° SSW visible
19 Jan 6.6 05:59:11 10° SSE 06:03:49 23° ESE 06:08:38 10° ENE visible
20 Jan 7.1 05:17:21 10° SE 05:19:36 12° ESE 05:21:52 10° E visible
21 Jan 4.8 06:18:52 10° SSW 06:24:49 56° ESE 06:31:10 10° NE visible
21 Jan 7.4 17:36:47 10° WNW 17:41:41 18° WSW 17:46:44 10° SW visible
22 Jan 5.8 05:35:03 10° S 05:40:23 32° ESE 05:46:00 10° NE visible
23 Jan 6.6 04:52:06 10° SSE 04:56:05 18° ESE 05:00:12 10° ENE visible
23 Jan 4.0 06:40:06 10° SW 06:46:12 65° NW 06:52:47 10° NNE visible
24 Jan 4.2 05:55:25 10° SSW 06:01:32 77° ESE 06:08:05 10° NE visible
25 Jan 5.0 05:11:14 10° S 05:17:00 45° ESE 05:23:08 10° NE visible
26 Jan 5.9 04:27:43 10° SSE 04:32:38 26° ESE 04:37:47 10° NE visible
26 Jan 4.2 06:17:09 10° SW 06:23:05 49° NW 06:29:30 10° NNE visible
27 Jan 6.6 03:45:20 10° SE 03:48:23 14° ESE 03:51:31 10° ENE visible
27 Jan 3.9 05:32:10 10° SW 05:38:18 79° WNW 05:44:55 10° NNE visible
